This is the latest recevied weather packets stored in our database for station/object Wangen. If no packets are shown the sender has not sent any weather packets the latest 10 day(s).
| Time | Temp. | Humidity | Pressure | Rain* | Wind** | Luminosity | Snow |
|---|---|---|---|---|---|---|---|
| 1777959131 | 8.33° C | 92% | 1007.8 hPa | 0 mm | - | - | - |
| 1777957331 | 7.78° C | 92% | 1007.8 hPa | 0 mm | - | - | - |
| 1777955531 | 7.22° C | 92% | 1007.9 hPa | 0 mm | - | - | - |
| 1777953731 | 7.22° C | 92% | 1008 hPa | 0 mm | - | - | - |
| 1777951931 | 7.78° C | 91% | 1008.2 hPa | 0 mm | - | - | - |
| 1777950134 | 7.78° C | 91% | 1008.4 hPa | 0 mm | - | - | - |
| 1777948331 | 8.33° C | 90% | 1008.6 hPa | 0 mm | - | - | - |
| 1777946531 | 8.33° C | 90% | 1008.6 hPa | 0 mm | - | - | - |
| 1777944731 | 8.89° C | 89% | 1008.9 hPa | 0 mm | - | - | - |
| 1777942932 | 9.44° C | 88% | 1009.2 hPa | 0 mm | - | - | - |
| 1777941129 | 10° C | 87% | 1009.6 hPa | 0 mm | - | - | - |
| 1777939330 | 10.56° C | 87% | 1009.7 hPa | 0 mm | - | - | - |
| 1777937529 | 11.11° C | 85% | 1009.9 hPa | 0 mm | - | - | - |
| 1777935730 | 11.67° C | 83% | 1010.2 hPa | 0 mm | - | - | - |
| 1777933935 | 12.22° C | 80% | 1010.4 hPa | 0 mm | - | - | - |
| 1777932130 | 12.22° C | 79% | 1010.4 hPa | 0 mm | - | - | - |
| 1777930329 | 12.78° C | 76% | 1010.5 hPa | 0 mm | - | - | - |
| 1777928529 | 13.33° C | 71% | 1010.5 hPa | 0 mm | - | - | - |
| 1777926729 | 14.44° C | 66% | 1010.3 hPa | 0 mm | - | - | - |
| 1777924929 | 16.11° C | 62% | 1010.1 hPa | 0 mm | - | - | - |
| 1777923129 | 17.22° C | 57% | 1009.6 hPa | 0 mm | - | - | - |
| 1777921329 | 18.33° C | 53% | 1009.6 hPa | 0 mm | - | - | - |
| 1777919529 | 18.89° C | 50% | 1009.8 hPa | 0 mm | - | - | - |
| 1777917734 | 19.44° C | 49% | 1010 hPa | 0 mm | - | - | - |
| 1777915929 | 19.44° C | 50% | 1009.8 hPa | 0 mm | - | - | - |
* Rain since midnight (hover to see other rain measurements)
** Current wind speed in m/s (hover to see current wind gust speed)